Date String (YYYY-MM-DD hh:mm:ss) UTC,Instrument flags,absolute air pressure of the measurement (hPa),sample flow rate (lpm),inlet stack bypass flow (lpm),air temperature of the measurement (°C),ambient temperature measured by the external sensor (°C),aerosol sample conditioner tube jacket temperature (°C),OPC LED temperature (°C),internal box temperature (°C),relative humidity of the measurement (%),span deviation,mass concentration of particles derived from Lorenz-Mie calculation of OPC scattering (μg/m³),mass concentration of particles derived from Lorenz-Mie calculation of OPC scattering (μg/m³),mass concentration of particles derived from Lorenz-Mie calculation of OPC scattering (μg/m³)
DateTimeUTC,F1_M11,P_M11,Q1_M11,Q2_M11,T1_M11,T2_M11,T3_M11,T4_M11,T5_M11,U1_M11,ZSPAN_M11,X0_M11,X2_M11,X1_M11
2024-03-28 16:00:00,SystemResetWarning,0825.9,5.00,000.00,018.9,018.5,000.0,027.2,020.6,16.7,0000.0,0005.44,0002.12,0001.44
2024-03-28 16:01:00,SystemResetWarning,0825.9,4.99,000.00,018.9,018.5,000.0,027.2,020.7,17.4,0000.0,0004.77,0002.13,0001.44
2024-03-28 16:02:00,SystemResetWarning,0825.9,5.00,000.00,018.9,018.5,000.0,027.2,020.7,16.6,0000.0,0004.39,0002.15,0001.44
2024-03-28 16:03:00,SystemResetWarning,0825.9,5.00,000.00,018.9,018.6,000.0,027.2,020.7,16.4,0000.0,0004.44,0002.18,0001.44
2024-03-28 16:04:00,SystemResetWarning,0825.9,4.99,000.00,019.0,018.6,000.0,027.2,020.7,16.7,0000.0,0004.39,0002.16,0001.44
2024-03-28 16:05:00,SystemResetWarning,0825.9,5.00,000.00,019.0,018.6,000.0,027.2,020.7,17.3,0000.0,0004.68,0002.15,0001.44
2024-03-28 16:06:00,SystemResetWarning,0825.9,4.99,000.00,019.0,018.6,000.0,027.3,020.7,16.5,0000.0,0005.94,0002.17,0001.46
2024-03-28 16:07:00,SystemResetWarning,0825.8,5.00,000.00,019.0,018.6,000.0,027.3,020.7,16.3,0000.0,0006.20,0002.23,0001.48
2024-03-28 16:08:00,SystemResetWarning,0825.8,5.00,000.00,019.0,018.6,000.0,027.3,020.7,15.8,0000.0,0006.01,0002.20,0001.47
2024-03-28 16:09:00,SystemResetWarning,0825.8,5.00,000.00,019.0,018.6,000.0,027.3,020.8,15.7,0000.0,0005.85,0002.16,0001.47
2024-03-28 16:10:00,SystemResetWarning,0825.8,5.01,000.00,019.0,018.6,000.0,027.3,020.8,15.5,0000.0,0005.88,0002.18,0001.47
2024-03-28 16:11:00,SystemResetWarning,0825.7,5.00,000.00,019.0,018.7,000.0,027.3,020.8,15.5,0000.0,0005.79,0002.16,0001.46
2024-03-28 16:12:00,SystemResetWarning,0825.7,4.99,000.00,019.1,018.7,000.0,027.3,020.8,15.8,0000.0,0005.76,0002.16,0001.46
2024-03-28 16:13:00,SystemResetWarning,0825.8,5.00,000.00,019.1,018.7,000.0,027.3,020.8,15.7,0000.0,0005.74,0002.18,0001.47
2024-03-28 16:14:00,SystemResetWarning,0825.8,5.00,000.00,019.1,018.7,000.0,027.4,020.8,15.7,0000.0,0005.89,0002.22,0001.47
2024-03-28 16:15:00,SystemResetWarning,0825.7,4.99,000.00,019.1,018.7,000.0,027.4,020.8,15.7,0000.0,0005.65,0002.22,0001.46
2024-03-28 16:16:00,SystemResetWarning,0825.7,5.00,000.00,019.1,018.7,000.0,027.4,020.9,15.8,0000.0,0005.30,0002.20,0001.46
2024-03-28 16:17:00,SystemResetWarning,0825.7,5.01,000.00,019.1,018.7,000.0,027.4,020.9,16.6,0000.0,0004.24,0002.19,0001.44
2024-03-28 16:18:00,SystemResetWarning,0825.6,5.01,000.00,019.2,018.7,000.0,027.4,020.9,17.6,0000.0,0004.09,0002.20,0001.43
2024-03-28 16:19:00,SystemResetWarning,0825.7,5.00,000.00,019.2,018.8,000.0,027.4,020.9,17.3,0000.0,0004.31,0002.25,0001.44
2024-03-28 16:20:00,SystemResetWarning,0825.7,5.00,000.00,019.2,018.8,000.0,027.4,020.9,18.7,0000.0,0004.97,0002.29,0001.46
2024-03-28 16:21:00,SystemResetWarning,0825.7,4.99,000.00,019.2,018.8,000.0,027.5,020.9,18.6,0000.0,0005.37,0002.32,0001.48
2024-03-28 16:22:00,SystemResetWarning,0825.8,4.99,000.00,019.2,018.8,000.0,027.5,020.9,18.4,0000.0,0005.53,0002.33,0001.49
2024-03-28 16:23:00,SystemResetWarning,0825.7,5.01,000.00,019.2,018.8,000.0,027.5,020.9,18.5,0000.0,0006.61,0002.32,0001.52
2024-03-28 16:24:00,SystemResetWarning,0825.6,5.01,000.00,019.2,018.8,000.0,027.5,020.9,18.3,0000.0,0006.77,0002.31,0001.52
2024-03-28 16:25:00,SystemResetWarning,0825.6,4.99,000.00,019.2,018.8,000.0,027.5,021.0,18.2,0000.0,0006.63,0002.28,0001.54
2024-03-28 16:26:00,SystemResetWarning,0825.5,4.99,000.00,019.2,018.8,000.0,027.5,021.0,18.1,0000.0,0007.16,0002.32,0001.56
2024-03-28 16:27:00,SystemResetWarning,0825.5,5.01,000.00,019.3,018.8,000.0,027.5,021.0,18.4,0000.0,0007.52,0002.40,0001.59
2024-03-28 16:28:00,SystemResetWarning,0825.5,5.01,000.00,019.3,018.9,000.0,027.5,021.0,17.7,0000.0,0007.66,0002.44,0001.61
2024-03-28 16:29:00,SystemResetWarning,0825.4,4.99,000.00,019.3,018.9,000.0,027.6,021.0,17.4,0000.0,0007.67,0002.39,0001.61
2024-03-28 16:30:00,SystemResetWarning,0825.4,4.99,000.00,019.3,018.9,000.0,027.6,021.0,17.2,0000.0,0007.77,0002.40,0001.61
2024-03-28 16:31:00,SystemResetWarning,0825.4,5.00,000.00,019.3,018.9,000.0,027.6,021.0,17.3,0000.0,0007.63,0002.39,0001.60
2024-03-28 16:32:00,SystemResetWarning,0825.3,5.00,000.00,019.3,018.9,000.0,027.6,021.0,18.5,0000.0,0007.45,0002.41,0001.61
2024-03-28 16:33:00,SystemResetWarning,0825.3,5.00,000.00,019.3,018.9,000.0,027.6,021.0,18.4,0000.0,0007.42,0002.47,0001.63
2024-03-28 16:34:00,SystemResetWarning,0825.3,5.01,000.00,019.3,018.9,000.0,027.6,021.0,18.8,0000.0,0006.44,0002.49,0001.63
2024-03-28 16:35:00,SystemResetWarning,0825.4,5.00,000.00,019.3,018.9,000.0,027.6,021.1,18.2,0000.0,0007.11,0002.48,0001.64
2024-03-28 16:36:00,SystemResetWarning,0825.4,5.01,000.00,019.3,018.9,000.0,027.6,021.1,17.5,0000.0,0007.59,0002.49,0001.64
2024-03-28 16:37:00,SystemResetWarning,0825.4,5.01,000.00,019.4,018.9,000.0,027.7,021.1,17.7,0000.0,0007.25,0002.52,0001.65
2024-03-28 16:38:00,SystemResetWarning,0825.5,5.01,000.00,019.4,018.9,000.0,027.7,021.1,17.1,0000.0,0006.96,0002.49,0001.65
2024-03-28 16:39:00,SystemResetWarning,0825.4,5.00,000.00,019.4,019.0,000.0,027.7,021.1,16.3,0000.0,0007.48,0002.54,0001.66
2024-03-28 16:40:00,SystemResetWarning,0825.4,5.00,000.00,019.4,019.0,000.0,027.7,021.2,16.1,0000.0,0007.81,0002.60,0001.68
2024-03-28 16:41:00,SystemResetWarning,0825.4,5.00,000.00,019.4,019.0,000.0,027.7,021.2,15.3,0000.0,0007.76,0002.57,0001.69
2024-03-28 16:42:00,SystemResetWarning,0825.4,5.00,000.00,019.4,019.0,000.0,027.7,021.2,15.0,0000.0,0007.74,0002.62,0001.72
2024-03-28 16:43:00,SystemResetWarning,0825.4,5.00,000.00,019.5,019.1,000.0,027.7,021.2,15.0,0000.0,0007.74,0002.66,0001.70
2024-03-28 16:44:00,SystemResetWarning,0825.4,5.00,000.00,019.5,019.1,000.0,027.7,021.2,15.8,0000.0,0007.73,0002.64,0001.69
2024-03-28 16:45:00,SystemResetWarning,0825.4,5.01,000.00,019.5,019.1,000.0,027.7,021.2,13.8,0000.0,0007.72,0002.63,0001.68
2024-03-28 16:46:00,SystemResetWarning,0825.4,5.02,000.00,019.5,019.1,000.0,027.8,021.2,13.7,0000.0,0007.12,0002.60,0001.66
2024-03-28 16:47:00,SystemResetWarning,0825.4,5.00,000.00,019.5,019.1,000.0,027.8,021.3,14.8,0000.0,0006.42,0002.59,0001.65
2024-03-28 16:48:00,SystemResetWarning,0825.4,4.98,000.00,019.5,019.1,000.0,027.8,021.3,14.7,0000.0,0006.63,0002.56,0001.65
2024-03-28 16:49:00,SystemResetWarning,0825.4,4.99,000.00,019.5,019.1,000.0,027.8,021.3,15.4,0000.0,0006.69,0002.56,0001.64
2024-03-28 16:50:00,SystemResetWarning,0825.3,5.00,000.00,019.6,019.2,000.0,027.8,021.3,14.8,0000.0,0006.17,0002.50,0001.63
2024-03-28 16:51:00,SystemResetWarning,0825.3,5.01,000.00,019.6,019.2,000.0,027.8,021.3,13.6,0000.0,0005.32,0002.46,0001.62
2024-03-28 16:52:00,SystemResetWarning,0825.3,5.01,000.00,019.6,019.2,000.0,027.8,021.3,13.7,0000.0,0005.19,0002.46,0001.62
2024-03-28 16:53:00,SystemResetWarning,0825.3,5.00,000.00,019.6,019.2,000.0,027.9,021.3,13.9,0000.0,0005.00,0002.46,0001.61
2024-03-28 16:54:00,SystemResetWarning,0825.3,4.99,000.00,019.6,019.2,000.0,027.9,021.3,13.8,0000.0,0004.88,0002.42,0001.60
2024-03-28 16:55:00,SystemResetWarning,0825.3,4.99,000.00,019.6,019.2,000.0,027.9,021.4,13.7,0000.0,0004.74,0002.35,0001.57
2024-03-28 16:56:00,SystemResetWarning,0825.3,5.00,000.00,019.6,019.2,000.0,027.9,021.4,13.5,0000.0,0004.97,0002.39,0001.55
2024-03-28 16:57:00,SystemResetWarning,0825.3,5.00,000.00,019.6,019.2,000.0,027.9,021.4,13.3,0000.0,0005.58,0002.45,0001.56
2024-03-28 16:58:00,SystemResetWarning,0825.4,5.00,000.00,019.7,019.2,000.0,027.9,021.4,14.0,0000.0,0006.52,0002.44,0001.55
2024-03-28 16:59:00,SystemResetWarning,0825.3,5.00,000.00,019.7,019.2,000.0,027.9,021.4,14.7,0000.0,0006.15,0002.40,0001.53
